Flag for France Weather past 2 weeks in Limoges, France

Now
72 °F

Scattered clouds.


Feels Like: 77 °F
Forecast: 53 / 74 °F
Wind: 7 mph from East

Location: Limoges Airport

Current Time: Oct 2, 2014 at 3:32:57 PM

Latest Report: Oct 2, 2014 at 3:00 PM


Visibility: N/A

Pressure: 30.30 "Hg

Humidity: 53%

Dew point: 54 °F

Location of LimogesLocation

Historic Weather in Limoges — Graph

°F

Limoges temperature yesterday

Maximum temperature yesterday: 72 °F (at 1:30 PM)
Minimum temperature yesterday: 57 °F (at 6:30 AM)
Average temperature yesterday: 64 °F

Past Weeks' High & Low Weather Summary

 TemperatureHumidityPressure
High81 °F (Sep 17, 4:30 PM)100% (Sep 21, 7:30 AM)30.36 "Hg (Sep 21, 7:30 AM)
Low46 °F (Sep 23, 6:30 AM)39% (Sep 23, 3:00 PM)29.74 "Hg (Sep 17, 3:00 PM)
Average61 °F74%30.12 "Hg
* Reported Sep 17 2:00 PM — Oct 2 2:30 PM, Limoges, Weather by CustomWeather, © 2014

Note: Actual official high and low records may vary slightly from our data, if they occured in-between our weather recording intervals... More about our weather records

Advertising

Limoges weather history for previous 24 hours

 ConditionsComfort  
Time TempWeatherWind HumidityBarometerVisibility
2:30 PM
Oct 2
68 °FScattered clouds.6 mph60%30.30 "HgN/A
2:00 PM72 °FPartly sunny.7 mph53%30.33 "HgN/A
1:30 PM70 °FPassing clouds.7 mph57%30.33 "HgN/A
1:00 PM70 °FClear.8 mph57%30.33 "HgN/A
12:30 PM70 °FPassing clouds.8 mph60%30.33 "HgN/A
12:00 PM68 °FClear.7 mph60%30.36 "HgN/A
11:30 AM66 °FClear.8 mph64%30.36 "HgN/A
11:00 AM66 °FClear.9 mph64%30.36 "HgN/A
10:30 AM64 °FClear.9 mph68%30.33 "HgN/A
10:00 AM64 °FClear.6 mph68%30.33 "HgN/A
9:30 AM63 °FClear.6 mph73%30.36 "HgN/A
9:00 AM61 °FClear.5 mph77%30.33 "HgN/A
8:30 AM59 °FClear.6 mph77%30.33 "HgN/A
8:00 AM59 °FClear.7 mph77%30.33 "HgN/A
7:30 AM59 °FClear.6 mph77%30.33 "HgN/A
7:00 AM59 °FClear.6 mph77%30.33 "HgN/A
6:30 AM59 °FClear.6 mph77%30.33 "HgN/A
6:00 AM59 °FClear.7 mph77%30.33 "HgN/A
5:30 AM59 °FClear.6 mph77%30.33 "HgN/A
5:00 AM59 °FClear.6 mph77%30.33 "HgN/A
4:30 AM59 °FClear.7 mph77%30.33 "HgN/A
4:00 AM59 °FClear.6 mph77%30.33 "HgN/A
3:30 AM59 °FClear.5 mph77%30.33 "HgN/A
3:00 AM59 °FClear.6 mph77%30.36 "HgN/A
2:30 AM59 °FClear.6 mph77%30.36 "HgN/A
2:00 AM59 °FClear.5 mph77%30.36 "HgN/A
1:30 AM59 °FClear.5 mph77%30.36 "HgN/A
1:00 AM61 °FClear.6 mph72%30.36 "HgN/A
12:30 AM61 °FClear.7 mph72%30.36 "HgN/A
12:00 AM61 °FClear.7 mph72%30.36 "HgN/A
11:30 PM
Oct 1
63 °FClear.7 mph68%30.36 "HgN/A
11:00 PM63 °FClear.8 mph68%30.36 "HgN/A
10:30 PM63 °FClear.8 mph68%30.36 "HgN/A
10:00 PM63 °FClear.8 mph73%30.36 "HgN/A
9:30 PM63 °FClear.7 mph73%30.36 "HgN/A
9:00 PM64 °FClear.7 mph68%30.36 "HgN/A
8:30 PM64 °FClear.7 mph68%30.33 "HgN/A
8:00 PM64 °FClear.6 mph68%30.33 "HgN/A
7:30 PM66 °FClear.5 mph64%30.33 "HgN/A
7:00 PM68 °FClear.5 mph60%30.33 "HgN/A
6:30 PM68 °FClear.7 mph60%30.33 "HgN/A
6:00 PM70 °FPassing clouds.7 mph57%30.33 "HgN/A
5:30 PM72 °FPassing clouds.9 mph53%30.30 "HgN/A
5:00 PM72 °FClear.7 mph53%30.30 "HgN/A
4:30 PM70 °FScattered clouds.6 mph57%30.30 "HgN/A
4:00 PM72 °FPassing clouds.5 mph50%30.33 "HgN/A
3:30 PM70 °FScattered clouds.5 mph57%30.33 "HgN/A
3:00 PM70 °FPassing clouds.3 mph60%30.33 "HgN/A
Weather by CustomWeather, © 2014

See weather overviewHow to use our weather pages